STARLINK-32383, 61891

Orbit data source: Space-Track

STARLINK-32383, 61891 is a payload satellite owned by SpaceX/Seattle (US) in LEO that was launched on Sat, 09 Nov 2024 UTC via an FALCON 9 launch vehicle from the Air Force Western Test Range (AFWTR). Payload-class satellites include a variety of spacecraft equipped with specific instruments for various scientific and technological missions. These include communications satellites like Starlink; space stations such as the ISS; scientific satellites like the Hubble; Earth observation satellites from companies like Planet Labs, Umbra, and HawkEye 360; GPS; miniature CubeSats for education and research; and military/defense satellites.

Loading next visibility...
Identifier
61891, 2024-204T
Orbit
LEO
Country
Flag of USUS
Related business
Manufacturer
SpaceX/Seattle
Mission
Operational Commercial Communications
Bus & Motor
STARLINK V2M, Unknown motor
Mass
730 kg wet, ~700 kg dry
Launch date (UTC)
2024-11-09 (2 years ago)
Launch vehicle
FALCON 9
Launch site
Air Force Western Test Range (AFWTR)
Object type
Payload
Rocket body
Debris
Shape & HBR
Box + 2 Pan, 17.7 m
Radar Cross Section
33.884 m², Large (>1 m²)

Expand to show TLE details & history
Last TLE update: 22 hours ago

TLE from 22 hours ago
0 STARLINK-32383
1 61891U 24204T   26170.93901176  .00000985  00000-0  40299-4 0  9999
2 61891  53.1621  10.6326 0001581 110.7109 249.4064 15.34392582 90771
Epoch: 2026-06-19T22:32Z
TLE epoch observation values (Epoch: 2026-06-19T22:32:10.616Z)
Latitude
0.00007°
Longitude
124.42762°
Altitude
464.007 km
Speed
7.635 km/s
True Right ascension
00h 42m 31s
True Declination
0° 00' 00"
Sunlit
Object was in daylight at epoch
Visualization orbit readout
Latitude
Unknown
Longitude
Unknown
Altitude
Unknown
Speed
Unknown
Apparent Right ascension
Unknown
Apparent Declination
Unknown
Sunlit
N/A
Visualization observer readout
Local Sidereal Time
07:12:56
Azimuth
Unknown
Elevation
Unknown
Doppler factor
Unknown
Orbital elements
Apogee altitude
464.063 km
Perigee altitude
461.9 km
Semi-major axis
6,841.119 km
Eccentricity
0.00016
Inclination
53.1621°
RAAN
10.6326°
Arg. of periapsis
110.7109°
True anomaly
249.38944°
Mean anomaly
249.4064°
Eccentric anomaly
249.39792°
Mean motion
3.83577 °/min
Orbital period
93.85 mins
BSTAR
0.000040299
Loading maneuver chart data...
Computing Atmospheric mass density...
Loading historical data...
Loading historical data...
Loading historical data...
Loading historical data...
Loading historical data...
Loading historical data...
Loading historical data...

Documentation

Showing up to 5 results
|